Regional Weather Roundup
Issued by NWS

Home | Current Version | Previous Version | Text Only | Print | Product List | Glossary Off
Versions: 1 2 3 4 5 6 7 8 9 10 11 12 13 14 15 16 17 18 19 20 21 22 23 24 25 26 27 28 29 30 31 32 33 34 35 36 37 38 39 40 41 42 43 44 45 46 47 48 49 50

000
ASUS45 KSLC 180410
RWRUT

UTAH REGIONAL WEATHER ROUNDUP
NATIONAL WEATHER SERVICE SALT LAKE CITY UT
1000 PM MDT THU AUG 17 2017

UTZ001>011-023>025-180500-

NORTHERN UTAH

CITY           SKY/WX    TMP DP  RH WIND       PRES   REMARKS
BRIGHAM CITY   CLEAR     76  35  22 N10       30.10R
HILL AFB       CLEAR     74  33  22 E10       30.13R
LOGAN          CLEAR     69  46  43 N3        30.12R
OGDEN          CLEAR     72  38  29 S7        30.09R
SALT LAKE CITY CLEAR     79  38  22 S6        30.08R
TOOELE VALLEY  CLEAR     64  43  45 SE3       30.10S
WENDOVER       CLEAR     80  40  23 CALM      30.08R
HEBER CITY     CLEAR     61  43  51 E3        30.19S
WEST JORDAN    CLEAR     73  49  41 SW8       30.13R

$$

UTZ011>015-024>027-180500-

CENTRAL/NORTHEAST UTAH

CITY           SKY/WX    TMP DP  RH WIND       PRES   REMARKS
PROVO AIRPORT  CLEAR     74  53  48 N7        30.12R
MOAB/CANYONLAN CLEAR     78  32  18 W5        30.07R
DELTA          CLEAR     75  41  29 NE3       30.12R
PRICE          CLEAR     69  38  32 N7        30.20R
ROOSEVELT      CLEAR     70  45  40 W5        30.17R
VERNAL         CLOUDY    69  48  47 W5        30.15R

$$

UTZ013>016-019>022-027-180500-

SOUTHERN UTAH

CITY           SKY/WX    TMP DP  RH WIND       PRES   REMARKS
BRYCE CANYON   CLEAR     57  42  57 W8        30.36R
CEDAR CITY     CLEAR     72  39  30 SW3       30.19R
MILFORD        CLEAR     72  34  24 S6        30.13R
ST GEORGE      CLEAR     84  43  23 SE3       29.98R
HANKSVILLE     CLEAR     73  27  17 CALM      30.09R
BLANDING       CLEAR     65  35  32 N8        30.28R

$$

REGIONAL REPORTS     COLORADO/ARIZONA

CITY           SKY/WX    TMP DP  RH WIND       PRES   REMARKS
CRAIG, CO      PTCLDY    65  37  35 S6        30.24R
GRAND JUNCTION CLEAR     74  31  20 SE5       30.12R
RIFLE, CO      CLEAR     68  38  33 NE5       30.20R
MONTROSE, CO   CLEAR     67  40  37 SE12      30.22R
CORTEZ, CO     CLEAR     62  37  39 E8        30.22R
COLORADO CITY    N/A     68  50  52 NE7       30.17R
PAGE, AZ       CLEAR     85  32  15 S5        30.07R
GRAND CANYON   PTCLDY    57  36  45 CALM      30.31R
KINGMAN, AZ    CLEAR     80  35  19 S10       30.06R
FLAGSTAFF, AZ  CLEAR     56  37  49 CALM      30.35R

$$

REGIONAL REPORTS    NEVADA/IDAHO/WYOMING

CITY           SKY/WX    TMP DP  RH WIND       PRES   REMARKS
LAS VEGAS, NV  CLEAR     95  39  14 S5        29.93R HX  91
ELY, NY        PTCLDY    64  34  32 S10       30.23R
ELKO, NV       CLEAR     73  27  18 VRB3      30.16R
POCATELLO, ID  CLEAR     62  35  36 S8        30.14R
BURLEY, ID     CLEAR     63  46  54 SW9       30.11R
FORT BRIDGER,    N/A     61  31  32 SW7       30.34R
EVANSTON, WY   CLEAR     63  30  28 W9        30.32R
ROCK SPRINGS,  CLEAR     68  29  23 W14       30.27R
KEMMERER, WY     N/A    N/A N/A N/A N8        30.33R

$$



USA.gov is the U.S. government's official web portal to all federal, state and local government web resources and services.